Powrót do katalogu

STARLINK-11393

AktywnyŁącznośćVLEO
NORAD 62016·PAYLOAD·🇺🇸 United States

Wystrzelony Nov 18, 2024 z Vandenberg Space Force Base

Loading…

Następne Przeloty (najbliższe 24 godziny)

TLE

ŚwieżeSource: CelesTrak SupGP

Epoka: Sep 15, 2026, 03:29 UTC

1 62016C 24213J   26258.14562500 -.00029493  00000+0 -24288-3 0  2586
2 62016  53.1576 187.0272 0001350  81.8399 336.9694 15.69729811    18

Śledź STARLINK-11393 w czasie rzeczywistym z AllMySat

Download on the App Store